Tracking 20060 objects as of 6-Dec-2019
HD Live streaming from Space Station
objects crossing your sky now

USA 24

Track USA 24 now!
10-day predictions
USA 24 is classified as:


NORAD ID: 18010
Int'l Code: 1987-043F
Perigee: 403.6 km
Apogee: 1,786.7 km
Inclination: 63.3 °
Period: 107.0 minutes
Semi major axis: 7466 km
RCS: Unknown
Launch date: May 15, 1987
Source: United States (US)
Launch site: AIR FORCE WESTERN TEST RANGE (AFWTR)
aabbcc
Your satellite tracking list
Your tracking list is empty




NASA's NSSDC Master Catalog

Two Line Element Set (TLE):
1 18010U 87043F   19339.91832609 +.00000489 +00000-0 +62788-4 0  9991
2 18010 063.3078 281.7173 0926195 060.1530 308.8297 13.45730305021208
Source of the keplerian elements: McCants